• In Latvia
  • List of Countries
  • For 7 days
  • Water Temperature
  • Satellite Maps
  • Weather Map
  • Weather Widgets
  • user-avatar
    Login

    Hourly Weather Samos

    Today, 24 October, Tuesday

    Time Temperature Precipitation Wind Pressure Humidity
    00:00 +13°C° 1 mm 9 mps 714 mmHg 83%
    01:00 +13°C° 1 mm 9 mps 714 mmHg 84%
    02:00 +13°C° 1 mm 9 mps 713 mmHg 84%
    03:00 +13°C° 1.2 mm 9 mps 713 mmHg 83%
    04:00 +13°C° 1.2 mm 9 mps 713 mmHg 82%
    05:00 +15°C° 1.2 mm 9 mps 713 mmHg 81%
    06:00 +15°C° 1.3 mm 8 mps 713 mmHg 82%
    07:00 +15°C° 1.3 mm 8 mps 713 mmHg 83%
    08:00 +15°C° 1.3 mm 7 mps 713 mmHg 84%
    09:00 +16°C° 0.6 mm 7 mps 713 mmHg 79%
    10:00 +16°C° 0.6 mm 7 mps 713 mmHg 75%
    11:00 +17°C° 0.6 mm 6 mps 713 mmHg 71%
    12:00 +17°C° 0.2 mm 6 mps 714 mmHg 68%
    13:00 +17°C° 0.2 mm 6 mps 714 mmHg 66%
    14:00 +19°C° 0.2 mm 6 mps 714 mmHg 63%
    15:00 +17°C° 0.2 mm 6 mps 714 mmHg 67%
    16:00 +16°C° 0.2 mm 5 mps 714 mmHg 71%
    17:00 +15°C° 0.2 mm 5 mps 714 mmHg 76%
    18:00 +15°C° 0.3 mm 4 mps 714 mmHg 78%
    19:00 +14°C° 0.3 mm 4 mps 715 mmHg 80%
    20:00 +13°C° 0.3 mm 4 mps 715 mmHg 83%
    21:00 +13°C° 0.2 mm 4 mps 715 mmHg 83%
    22:00 +13°C° 0.2 mm 4 mps 715 mmHg 83%
    23:00 +13°C° 0.2 mm 5 mps 716 mmHg 83%

    Tomorrow, 25 October, Wednesday

    Time Temperature Precipitation Wind Pressure Humidity
    00:00 +13°C° 0.2 mm 4 mps 716 mmHg 84%
    01:00 +12°C° 0.2 mm 4 mps 716 mmHg 85%
    02:00 +12°C° 0.2 mm 3 mps 716 mmHg 86%
    03:00 +12°C° 0.2 mm 3 mps 717 mmHg 87%
    04:00 +11°C° 0.2 mm 3 mps 717 mmHg 88%
    05:00 +12°C° 0.2 mm 2 mps 717 mmHg 89%
    06:00 +12°C° 0.1 mm 3 mps 717 mmHg 86%
    07:00 +12°C° 0.1 mm 3 mps 718 mmHg 84%
    08:00 +13°C° 0.1 mm 3 mps 718 mmHg 81%
    09:00 +16°C° 0.1 mm 3 mps 718 mmHg 71%
    10:00 +18°C° 0.1 mm 3 mps 719 mmHg 62%
    11:00 +20°C° 0.1 mm 2 mps 719 mmHg 52%
    12:00 +20°C° 0.1 mm 2 mps 719 mmHg 50%
    13:00 +20°C° 0.1 mm 2 mps 719 mmHg 48%
    14:00 +20°C° 0.1 mm 2 mps 720 mmHg 46%
    15:00 +19°C° 0.3 mm 2 mps 720 mmHg 51%
    16:00 +18°C° 0.3 mm 2 mps 720 mmHg 57%
    17:00 +17°C° 0.3 mm 2 mps 720 mmHg 62%
    18:00 +16°C° 0.1 mm 2 mps 721 mmHg 66%
    19:00 +16°C° 0.1 mm 2 mps 721 mmHg 69%
    20:00 +15°C° 0.1 mm 2 mps 722 mmHg 73%
    21:00 +15°C° 0 mm 2 mps 722 mmHg 74%
    22:00 +14°C° 0 mm 2 mps 722 mmHg 76%
    23:00 +14°C° 0 mm 2 mps 723 mmHg 77%

    Day after tomorrow, 26 October, Thursday

    Time Temperature Precipitation Wind Pressure Humidity
    00:00 +13°C° 0 mm 2 mps 723 mmHg 78%
    01:00 +13°C° 0 mm 2 mps 723 mmHg 79%
    02:00 +12°C° 0 mm 3 mps 723 mmHg 81%
    03:00 +11°C° 0 mm 3 mps 723 mmHg 81%
    04:00 +11°C° 0 mm 3 mps 723 mmHg 81%
    05:00 +11°C° 0 mm 4 mps 723 mmHg 82%
    06:00 +11°C° 0 mm 4 mps 724 mmHg 79%
    07:00 +12°C° 0 mm 4 mps 724 mmHg 77%
    08:00 +12°C° 0 mm 4 mps 725 mmHg 74%
    09:00 +14°C° 0 mm 4 mps 725 mmHg 67%
    10:00 +16°C° 0 mm 5 mps 725 mmHg 60%
    11:00 +17°C° 0 mm 5 mps 725 mmHg 53%
    12:00 +19°C° 0 mm 5 mps 725 mmHg 51%
    13:00 +20°C° 0 mm 5 mps 725 mmHg 48%
    14:00 +20°C° 0 mm 4 mps 725 mmHg 46%
    15:00 +19°C° 0 mm 5 mps 725 mmHg 49%
    16:00 +17°C° 0 mm 5 mps 724 mmHg 53%
    17:00 +16°C° 0 mm 6 mps 724 mmHg 57%
    18:00 +15°C° 0 mm 6 mps 724 mmHg 62%
    19:00 +14°C° 0 mm 6 mps 724 mmHg 66%
    20:00 +13°C° 0 mm 6 mps 724 mmHg 71%
    21:00 +11°C° 0 mm 6 mps 724 mmHg 74%
    22:00 +11°C° 0 mm 6 mps 724 mmHg 76%
    23:00 +10°C° 0 mm 5 mps 724 mmHg 79%

    27 October, Friday

    Time Temperature Precipitation Wind Pressure Humidity
    00:00 +10°C° 0 mm 5 mps 724 mmHg 79%
    01:00 +10°C° 0 mm 5 mps 724 mmHg 80%
    02:00 +10°C° 0 mm 5 mps 723 mmHg 81%
    03:00 +9°C° 0 mm 5 mps 723 mmHg 82%
    04:00 +9°C° 0 mm 5 mps 723 mmHg 82%
    05:00 +9°C° 0 mm 5 mps 722 mmHg 83%
    06:00 +10°C° 0 mm 5 mps 722 mmHg 79%
    07:00 +10°C° 0 mm 5 mps 722 mmHg 76%
    08:00 +12°C° 0 mm 5 mps 722 mmHg 73%
    09:00 +14°C° 0 mm 5 mps 722 mmHg 65%
    10:00 +17°C° 0 mm 4 mps 722 mmHg 57%
    11:00 +19°C° 0 mm 4 mps 722 mmHg 49%
    12:00 +20°C° 0 mm 4 mps 722 mmHg 46%
    13:00 +21°C° 0 mm 4 mps 721 mmHg 42%
    14:00 +22°C° 0 mm 4 mps 721 mmHg 39%
    15:00 +21°C° 0 mm 4 mps 720 mmHg 42%
    16:00 +19°C° 0 mm 4 mps 720 mmHg 46%
    17:00 +18°C° 0 mm 4 mps 720 mmHg 49%
    18:00 +17°C° 0 mm 4 mps 720 mmHg 54%
    19:00 +15°C° 0 mm 4 mps 720 mmHg 58%
    20:00 +14°C° 0 mm 4 mps 719 mmHg 62%
    21:00 +14°C° 0 mm 3 mps 719 mmHg 63%
    22:00 +13°C° 0 mm 3 mps 719 mmHg 65%
    23:00 +14°C° 0 mm 2 mps 719 mmHg 66%

    28 October, Saturday

    Time Temperature Precipitation Wind Pressure Humidity
    00:00 +14°C° 0 mm 2 mps 719 mmHg 66%
    01:00 +13°C° 0 mm 2 mps 718 mmHg 66%
    02:00 +13°C° 0 mm 2 mps 718 mmHg 66%
    03:00 +13°C° 0 mm 2 mps 717 mmHg 67%
    04:00 +13°C° 0 mm 1 mps 717 mmHg 67%
    05:00 +13°C° 0 mm 1 mps 717 mmHg 67%
    06:00 +13°C° 0 mm 1 mps 717 mmHg 64%
    07:00 +14°C° 0 mm 1 mps 717 mmHg 61%
    08:00 +15°C° 0 mm 1 mps 717 mmHg 58%
    09:00 +18°C° 0 mm 1 mps 717 mmHg 54%
    10:00 +18°C° 0 mm 2 mps 717 mmHg 49%
    11:00 +20°C° 0 mm 2 mps 717 mmHg 44%
    12:00 +20°C° 0 mm 2 mps 717 mmHg 44%
    13:00 +21°C° 0 mm 2 mps 716 mmHg 44%
    14:00 +21°C° 0 mm 3 mps 716 mmHg 44%
    15:00 +20°C° 0 mm 3 mps 716 mmHg 50%
    16:00 +18°C° 0 mm 2 mps 716 mmHg 56%
    17:00 +17°C° 0 mm 2 mps 716 mmHg 62%
    18:00 +16°C° 0 mm 2 mps 716 mmHg 67%
    19:00 +14°C° 0 mm 3 mps 716 mmHg 72%
    20:00 +13°C° 0 mm 3 mps 716 mmHg 77%
    21:00 +13°C° 0 mm 3 mps 716 mmHg 77%
    22:00 +13°C° 0 mm 4 mps 716 mmHg 78%
    23:00 +12°C° 0 mm 4 mps 716 mmHg 78%

    29 October, Sunday

    Time Temperature Precipitation Wind Pressure Humidity
    00:00 +13°C° 0.1 mm 4 mps 716 mmHg 78%
    01:00 +13°C° 0.1 mm 4 mps 716 mmHg 78%
    02:00 +13°C° 0.1 mm 5 mps 716 mmHg 77%
    03:00 +13°C° 0.2 mm 5 mps 716 mmHg 79%
    04:00 +13°C° 0.2 mm 6 mps 715 mmHg 80%
    05:00 +14°C° 0.2 mm 6 mps 715 mmHg 81%
    06:00 +14°C° 0.2 mm 7 mps 715 mmHg 81%
    07:00 +14°C° 0.2 mm 7 mps 715 mmHg 81%
    08:00 +15°C° 0.2 mm 8 mps 715 mmHg 81%
    09:00 +16°C° 0.2 mm 8 mps 715 mmHg 76%
    10:00 +17°C° 0.2 mm 9 mps 715 mmHg 70%
    11:00 +17°C° 0.2 mm 9 mps 715 mmHg 65%
    12:00 +18°C° 0.2 mm 9 mps 715 mmHg 61%
    13:00 +19°C° 0.2 mm 9 mps 714 mmHg 57%
    14:00 +21°C° 0.2 mm 9 mps 714 mmHg 53%
    15:00 +19°C° 0.3 mm 9 mps 714 mmHg 60%
    16:00 +18°C° 0.3 mm 9 mps 714 mmHg 66%
    17:00 +17°C° 0.3 mm 8 mps 714 mmHg 73%
    18:00 +17°C° 0.3 mm 8 mps 714 mmHg 78%
    19:00 +16°C° 0.3 mm 8 mps 714 mmHg 82%
    20:00 +15°C° 0.3 mm 8 mps 714 mmHg 87%
    21:00 +15°C° 0.6 mm 8 mps 714 mmHg 88%
    22:00 +15°C° 0.6 mm 8 mps 714 mmHg 90%
    23:00 +15°C° 0.6 mm 8 mps 714 mmHg 91%

    30 October, Monday

    Time Temperature Precipitation Wind Pressure Humidity
    00:00 +15°C° 0.6 mm 9 mps 714 mmHg 91%
    01:00 +15°C° 0.6 mm 9 mps 714 mmHg 91%
    02:00 +15°C° 0.6 mm 9 mps 714 mmHg 91%
    03:00 +15°C° 0.5 mm 9 mps 714 mmHg 91%
    04:00 +14°C° 0.5 mm 10 mps 714 mmHg 91%
    05:00 +14°C° 0.5 mm 10 mps 714 mmHg 90%
    06:00 +14°C° 0.5 mm 10 mps 714 mmHg 88%
    07:00 +16°C° 0.5 mm 10 mps 714 mmHg 85%
    08:00 +16°C° 0.5 mm 10 mps 714 mmHg 83%
    09:00 +17°C° 0.9 mm 10 mps 715 mmHg 78%
    10:00 +18°C° 0.9 mm 10 mps 715 mmHg 73%
    11:00 +19°C° 0.9 mm 10 mps 715 mmHg 68%
    12:00 +19°C° 0.6 mm 10 mps 715 mmHg 67%
    13:00 +19°C° 0.6 mm 10 mps 714 mmHg 67%
    14:00 +19°C° 0.6 mm 10 mps 714 mmHg 66%
    15:00 +18°C° 0.8 mm 10 mps 714 mmHg 70%
    16:00 +17°C° 0.8 mm 11 mps 714 mmHg 74%
    17:00 +16°C° 0.8 mm 11 mps 714 mmHg 77%
    18:00 +16°C° 1.9 mm 11 mps 715 mmHg 79%
    19:00 +14°C° 1.9 mm 11 mps 715 mmHg 82%
    20:00 +14°C° 1.9 mm 11 mps 715 mmHg 84%
    21:00 +13°C° 0.8 mm 11 mps 715 mmHg 82%
    22:00 +13°C° 0.8 mm 10 mps 716 mmHg 81%
    23:00 +12°C° 0.8 mm 10 mps 716 mmHg 79%
    Show more